User: anonymous   Login
Location: Unspecified
(0.0000°N, 0.0000°E)
Time: 08:52:05
(UTC+00:00)
Language:

COSMOS 2471 (GLONASS) - Orbit

View from above orbital plane
View from above orbital plane
View from above satellite
View from above satellite

Ground track
Ground track

The orbit data is extracted from the following two-line orbital elements,

1 37372U 11009A   17177.60833647 -.00000042 +00000-0 +00000-0 0  9990
2 37372 065.4047 064.3154 0006966 239.4637 064.1206 02.13107675049244
Epoch (UTC): 26 June 2017 14:36:00
Eccentricity: 0.0006966
inclination: 65.4047°
perigee height: 19111 km
apogee height: 19147 km
right ascension of ascending node: 64.3154°
argument of perigee: 239.4637°
revolutions per day: 2.13107675
mean anomaly at epoch: 64.1206°
orbit number at epoch: 4924

The dashed part of the orbit path shows where the satellite is in the earth's shadow,  

DLR